Weather History for KPEQ - November, 2012

Change the Weather History Date:

Saturday, November 10, 2012

  Actual Average Record
Temperature  
Mean Temperature 66 °F -  
Max Temperature 86 °F 73 °F 89 °F (1915)
Min Temperature 45 °F 38 °F 15 °F (1950)
Growing Degree Days 16 (Base 50)    
Moisture  
Dew Point 42 °F    
Average Humidity 51    
Maximum Humidity 85    
Minimum Humidity 15    
Precipitation  
Precipitation 0.00 in - - ()
Sea Level Pressure  
Sea Level Pressure 29.79 in    
Wind  
Wind Speed 5 mph (South)    
Max Wind Speed 23 mph    
Max Gust Speed 30 mph    
Visibility 9 miles    
Events      
Averages and records for this station are not official NWS values.
T = Trace of Precipitation, MM = Missing Value Source: NWS Daily Summary

Daily Weather History Graph

Daily Weather History Graph

Search for Another Location

Airport or City:

Trip Planner

Search our weather history database for the weather conditions in past years. The results will help you decide how hot, cold, wet, or windy it might be!

Date:

Astronomy

Nov. 10, 2012 Rise Set
Actual Time 7:17 AM CST 5:57 PM CST
Civil Twilight 6:52 AM CST 6:23 PM CST
Nautical Twilight 6:23 AM CST 6:52 PM CST
Astronomical Twilight 5:54 AM CST 7:21 PM CST
Moon 3:37 AM CST (11/10) 3:35 PM CST (11/10)
Length of Visible Light 11h 31m
Length of Day
10h 40m
Waning Crescent, 14% of the Moon is Illuminated
Nov 10
Waning Crescent
Nov 13
New
Nov 20
First Quarter
Nov 28
Full
Dec 6
Last Quarter

Hourly Weather History & Observations

Time (CST) Temp. Windchill Dew Point Humidity Pressure Visibility Wind Dir Wind Speed Gust Speed Precip Events Conditions
12:15 AM 63.9 °F - 52.0 °F 65% 29.85 in 10.0 mi Calm Calm - N/A   Clear
12:35 AM 63.7 °F - 51.8 °F 65% 29.84 in 10.0 mi SSE 3.5 mph - N/A   Clear
12:55 AM 62.2 °F - 51.4 °F 68% 29.85 in 10.0 mi South 3.5 mph - N/A   Clear
1:15 AM 62.6 °F - 51.8 °F 68% 29.84 in 10.0 mi ESE 3.5 mph - N/A   Clear
1:35 AM 59.4 °F - 50.2 °F 72% 29.85 in 10.0 mi West 5.8 mph - N/A   Clear
1:55 AM 58.8 °F - 49.6 °F 72% 29.85 in 10.0 mi NNE 3.5 mph - N/A   Clear
2:15 AM 58.3 °F - 50.4 °F 75% 29.84 in 10.0 mi East 4.6 mph - N/A   Clear
2:55 AM 55.9 °F - 49.6 °F 79% 29.84 in 10.0 mi East 5.8 mph - N/A   Clear
3:15 AM 56.5 °F - 50.0 °F 79% 29.84 in 10.0 mi Calm Calm - N/A   Clear
3:35 AM 52.9 °F - 47.1 °F 81% 29.84 in 10.0 mi WNW 4.6 mph - N/A   Clear
3:55 AM 52.9 °F - 47.1 °F 81% 29.84 in 10.0 mi Calm Calm - N/A   Clear
4:15 AM 53.4 °F - 47.5 °F 80% 29.84 in 10.0 mi Calm Calm - N/A   Clear
4:35 AM 52.7 °F - 48.2 °F 85% 29.84 in 10.0 mi Calm Calm - N/A   Clear
4:55 AM 51.6 °F - 46.4 °F 82% 29.84 in 10.0 mi Calm Calm - N/A   Clear
5:15 AM 49.5 °F - 43.5 °F 80% 29.84 in 10.0 mi Calm Calm - N/A   Clear
5:35 AM 48.7 °F - 41.9 °F 77% 29.84 in 10.0 mi SSW 3.5 mph - N/A   Clear
6:15 AM 46.6 °F - 40.1 °F 78% 29.84 in 10.0 mi WSW 3.5 mph - N/A   Clear
6:35 AM 46.8 °F - 40.5 °F 79% 29.84 in 10.0 mi Calm Calm - N/A   Clear
6:55 AM 46.2 °F - 40.3 °F 80% 29.85 in 10.0 mi Calm Calm - N/A   Clear
7:15 AM 45.7 °F - 39.9 °F 80% 29.85 in 10.0 mi Calm Calm - N/A   Clear
7:35 AM 46.4 °F 45.2 °F 40.6 °F 80% 29.85 in 10.0 mi ENE 3.5 mph - N/A   Clear
7:55 AM 48.6 °F - 42.6 °F 80% 29.85 in 10.0 mi Calm Calm - N/A   Clear
8:15 AM 50.7 °F - 43.9 °F 77% 29.86 in 10.0 mi WNW 3.5 mph - N/A   Clear
8:35 AM 52.9 °F - 45.0 °F 74% 29.86 in 10.0 mi Calm Calm - N/A   Clear
8:55 AM 56.8 °F - 47.1 °F 70% 29.86 in 10.0 mi East 4.6 mph - N/A   Clear
9:15 AM 60.4 °F - 47.3 °F 62% 29.86 in 10.0 mi East 3.5 mph - N/A   Clear
9:35 AM 64.0 °F - 46.8 °F 53% 29.86 in 10.0 mi SE 3.5 mph - N/A   Clear
9:55 AM 69.1 °F - 46.9 °F 45% 29.85 in 10.0 mi SE 4.6 mph - N/A   Clear
10:15 AM 73.6 °F - 47.3 °F 39% 29.84 in 10.0 mi East 6.9 mph - N/A   Clear
10:35 AM 79.0 °F - 43.9 °F 29% 29.84 in 10.0 mi SSE 15.0 mph - N/A   Clear
12:55 PM 86.9 °F - 34.5 °F 15% 29.76 in 10.0 mi SW 23.0 mph 29.9 mph N/A   Clear
1:55 PM 85.3 °F - 34.7 °F 16% 29.72 in 10.0 mi SW 23.0 mph 26.5 mph N/A   Clear
3:55 PM 83.8 °F - 36.7 °F 19% 29.69 in 10.0 mi South 17.3 mph 25.3 mph N/A   Clear
4:15 PM 83.5 °F - 37.0 °F 19% 29.68 in 10.0 mi South 19.6 mph 25.3 mph N/A   Scattered Clouds
4:55 PM 82.9 °F - 37.9 °F 20% 29.68 in 10.0 mi South 19.6 mph - N/A   Scattered Clouds
5:15 PM 82.6 °F - 38.3 °F 21% 29.68 in 10.0 mi South 13.8 mph 24.2 mph N/A   Scattered Clouds
5:35 PM 81.9 °F - 38.5 °F 21% 29.68 in 10.0 mi South 17.3 mph 21.9 mph N/A   Scattered Clouds
5:55 PM 80.6 °F - 38.8 °F 22% 29.68 in 10.0 mi South 9.2 mph 15.0 mph N/A   Scattered Clouds
6:15 PM 79.2 °F - 39.2 °F 24% 29.68 in 10.0 mi South 10.4 mph - N/A   Clear
6:35 PM 77.9 °F - 39.4 °F 25% 29.69 in 10.0 mi South 11.5 mph - N/A   Clear
6:55 PM 76.5 °F - 39.6 °F 27% 29.70 in 10.0 mi South 8.1 mph - N/A   Scattered Clouds
7:15 PM 75.6 °F - 39.6 °F 27% 29.70 in 10.0 mi SSE 9.2 mph - N/A   Scattered Clouds
7:35 PM 74.5 °F - 39.7 °F 29% 29.70 in 10.0 mi SSE 8.1 mph - N/A   Scattered Clouds
7:55 PM 73.6 °F - 39.9 °F 30% 29.72 in 10.0 mi West 9.2 mph 16.1 mph N/A   Scattered Clouds
8:15 PM 73.8 °F - 36.0 °F 25% 29.74 in 4.0 mi WNW 9.2 mph - N/A   Haze
8:35 PM 70.9 °F - 36.1 °F 28% 29.74 in 4.0 mi WNW 5.8 mph - N/A   Haze
8:55 PM 70.2 °F - 35.1 °F 28% 29.75 in 3.0 mi NW 3.5 mph - N/A   Haze
9:35 PM 68.7 °F - 34.9 °F 29% 29.77 in 3.0 mi North 4.6 mph - N/A   Haze
10:15 PM 68.0 °F - 33.6 °F 28% 29.78 in 5.0 mi WNW 8.1 mph - N/A   Haze
10:35 PM 65.8 °F - 33.8 °F 30% 29.79 in 5.0 mi WNW 6.9 mph - N/A   Haze
10:55 PM 66.2 °F - 33.4 °F 30% 29.79 in 7.0 mi Calm Calm - N/A   Overcast
11:15 PM 64.8 °F - 33.3 °F 31% 29.79 in 7.0 mi NW 8.1 mph - N/A   Overcast
11:35 PM 63.1 °F - 33.3 °F 33% 29.79 in 7.0 mi NNW 6.9 mph - N/A   Overcast
11:55 PM 62.2 °F - 33.3 °F 34% 29.80 in 10.0 mi NW 4.6 mph - N/A   Overcast